OCN136 HKMO-HTKJ

Flight info

Callsign OCN136
Flight time 0h 32m
Altitude 24000
Route GADLA L434 OKNES
Aircraft A332/H-SDE3GHIJ2J3J5M1RVWXY/LB2D1

Departure

Time 2026-04-22 16:10
Airport Moi International Airport (HKMO)

Arrival

Time 2026-04-22 16:42
Airport Kilimanjaro International Airport (HTKJ)
Time Latitude Longitude Altitude Speed Heading
2026-04-22 15:36 -4.03148 39.60222 220 ft 0 kts 118°
2026-04-22 15:58 -4.03144 39.60214 220 ft 2 kts 118°
2026-04-22 15:59 -4.03137 39.60201 220 ft 2 kts 118°
2026-04-22 15:59 -4.03130 39.60187 221 ft 2 kts 118°
2026-04-22 15:59 -4.03125 39.60180 221 ft 2 kts 115°
2026-04-22 15:59 -4.03123 39.60165 220 ft 2 kts 81°
2026-04-22 16:00 -4.03126 39.60155 220 ft 2 kts 63°
2026-04-22 16:00 -4.03137 39.60142 219 ft 0 kts 30°
2026-04-22 16:00 -4.03141 39.60140 219 ft 0 kts 29°
2026-04-22 16:03 -4.03136 39.60143 219 ft 7 kts 29°
2026-04-22 16:03 -4.03055 39.60188 224 ft 13 kts 29°
2026-04-22 16:03 -4.03006 39.60214 224 ft 15 kts 21°
2026-04-22 16:04 -4.02955 39.60214 222 ft 8 kts 327°
2026-04-22 16:04 -4.02914 39.60166 220 ft 14 kts 300°
2026-04-22 16:04 -4.02875 39.60098 214 ft 21 kts 300°
2026-04-22 16:04 -4.02839 39.60037 210 ft 18 kts 304°
2026-04-22 16:05 -4.02795 39.60018 207 ft 10 kts 10°
2026-04-22 16:05 -4.02773 39.60032 207 ft 3 kts 45°
2026-04-22 16:05 -4.02719 39.60059 206 ft 19 kts 25°
2026-04-22 16:05 -4.02579 39.60131 205 ft 23 kts 30°
2026-04-22 16:06 -4.02429 39.60216 204 ft 25 kts 29°
2026-04-22 16:06 -4.02367 39.60249 204 ft 7 kts 29°
2026-04-22 16:06 -4.02269 39.60304 204 ft 22 kts 29°
2026-04-22 16:06 -4.02118 39.60389 204 ft 26 kts 30°
2026-04-22 16:07 -4.01956 39.60479 205 ft 26 kts 29°
2026-04-22 16:07 -4.01792 39.60571 207 ft 27 kts 29°
2026-04-22 16:07 -4.01628 39.60663 210 ft 26 kts 30°
2026-04-22 16:07 -4.01459 39.60734 213 ft 26 kts 360°
2026-04-22 16:08 -4.01410 39.60726 214 ft 0 kts 341°
2026-04-22 16:08 -4.01394 39.60721 214 ft 11 kts 337°
2026-04-22 16:08 -4.01333 39.60650 215 ft 7 kts 273°
2026-04-22 16:09 -4.01354 39.60623 215 ft 0 kts 210°
2026-04-22 16:09 -4.01378 39.60609 215 ft 19 kts 210°
2026-04-22 16:09 -4.01666 39.60445 208 ft 76 kts 208°
2026-04-22 16:09 -4.02306 39.60095 203 ft 128 kts 210°
2026-04-22 16:10 -4.03179 39.59605 466 ft 148 kts 208°
2026-04-22 16:10 -4.04019 39.59003 887 ft 155 kts 235°
2026-04-22 16:10 -4.04280 39.58340 1258 ft 157 kts 259°
2026-04-22 16:10 -4.04289 39.56866 1800 ft 164 kts 269°
2026-04-22 16:11 -4.04188 39.55715 2160 ft 171 kts 272°
2026-04-22 16:11 -4.04028 39.54470 2341 ft 192 kts 275°
2026-04-22 16:11 -4.03798 39.53066 2459 ft 218 kts 277°
2026-04-22 16:11 -4.03493 39.51472 2539 ft 252 kts 279°
2026-04-22 16:12 -4.03098 39.49630 2792 ft 281 kts 280°
2026-04-22 16:12 -4.02660 39.47730 3640 ft 283 kts 281°
2026-04-22 16:12 -4.02201 39.45805 4451 ft 288 kts 281°
2026-04-22 16:12 -4.01732 39.43876 5268 ft 291 kts 282°
2026-04-22 16:13 -4.01243 39.41893 6060 ft 295 kts 282°
2026-04-22 16:13 -4.00747 39.39904 6827 ft 300 kts 283°
2026-04-22 16:13 -4.00191 39.37915 7647 ft 302 kts 287°
2026-04-22 16:13 -3.99516 39.35913 8475 ft 304 kts 289°
2026-04-22 16:14 -3.98827 39.33918 9277 ft 306 kts 289°
2026-04-22 16:14 -3.98121 39.31894 10065 ft 308 kts 289°
2026-04-22 16:14 -3.97396 39.29831 10354 ft 330 kts 290°
2026-04-22 16:14 -3.96603 39.27584 10693 ft 349 kts 290°
2026-04-22 16:15 -3.95773 39.25241 11091 ft 366 kts 290°
2026-04-22 16:15 -3.94912 39.22813 11757 ft 372 kts 290°
2026-04-22 16:15 -3.94058 39.20404 12581 ft 374 kts 290°
2026-04-22 16:15 -3.93180 39.17931 13388 ft 377 kts 290°
2026-04-22 16:16 -3.92299 39.15448 14110 ft 381 kts 290°
2026-04-22 16:16 -3.91421 39.12973 14840 ft 385 kts 290°
2026-04-22 16:16 -3.90520 39.10436 15534 ft 389 kts 290°
2026-04-22 16:16 -3.89606 39.07864 16270 ft 392 kts 290°
2026-04-22 16:17 -3.88690 39.05309 16933 ft 397 kts 290°
2026-04-22 16:17 -3.87751 39.02680 17601 ft 401 kts 290°
2026-04-22 16:17 -3.86818 39.00056 18224 ft 406 kts 290°
2026-04-22 16:17 -3.85861 38.97362 18803 ft 412 kts 290°
2026-04-22 16:18 -3.84901 38.94658 19425 ft 416 kts 290°
2026-04-22 16:18 -3.83928 38.91915 20021 ft 420 kts 290°
2026-04-22 16:18 -3.82956 38.89178 20548 ft 426 kts 290°
2026-04-22 16:18 -3.81962 38.86378 21089 ft 432 kts 290°
2026-04-22 16:19 -3.80949 38.83522 21607 ft 438 kts 290°
2026-04-22 16:19 -3.79926 38.80641 22158 ft 442 kts 290°
2026-04-22 16:19 -3.78904 38.77762 22794 ft 444 kts 289°
2026-04-22 16:19 -3.77867 38.74842 23405 ft 447 kts 289°
2026-04-22 16:20 -3.76821 38.71898 23888 ft 453 kts 289°
2026-04-22 16:20 -3.75757 38.68908 23968 ft 459 kts 290°
2026-04-22 16:20 -3.74661 38.65826 23996 ft 476 kts 289°
2026-04-22 16:20 -3.73536 38.62680 23993 ft 483 kts 290°
2026-04-22 16:21 -3.72621 38.59457 23995 ft 482 kts 282°
2026-04-22 16:21 -3.71976 38.56193 23994 ft 481 kts 281°
2026-04-22 16:21 -3.71316 38.52884 23998 ft 481 kts 281°
2026-04-22 16:21 -3.70652 38.49618 24005 ft 481 kts 281°
2026-04-22 16:22 -3.69307 38.43056 24006 ft 482 kts 282°
2026-04-22 16:22 -3.68635 38.39785 24013 ft 481 kts 282°
2026-04-22 16:22 -3.67962 38.36512 24019 ft 482 kts 282°
2026-04-22 16:23 -3.66613 38.29952 24026 ft 481 kts 282°
2026-04-22 16:23 -3.65940 38.26678 24029 ft 482 kts 282°
2026-04-22 16:23 -3.65263 38.23387 24030 ft 482 kts 282°
2026-04-22 16:24 -3.64587 38.20101 24036 ft 480 kts 282°
2026-04-22 16:24 -3.63239 38.13552 24039 ft 481 kts 282°
2026-04-22 16:24 -3.62567 38.10292 24046 ft 482 kts 282°
2026-04-22 16:25 -3.61884 38.06987 24050 ft 482 kts 282°
2026-04-22 16:25 -3.60569 38.00426 24060 ft 480 kts 281°
2026-04-22 16:25 -3.59946 37.97138 24063 ft 481 kts 281°
2026-04-22 16:26 -3.59315 37.93848 24064 ft 481 kts 281°
2026-04-22 16:26 -3.58748 37.90569 24055 ft 471 kts 274°
2026-04-22 16:26 -3.58751 37.87378 24050 ft 455 kts 267°
2026-04-22 16:26 -3.58923 37.84251 23589 ft 439 kts 266°
2026-04-22 16:27 -3.59089 37.81283 23050 ft 428 kts 266°
2026-04-22 16:27 -3.59252 37.78334 22542 ft 417 kts 266°
2026-04-22 16:27 -3.59407 37.75481 22070 ft 409 kts 266°
2026-04-22 16:27 -3.59562 37.72645 21613 ft 405 kts 266°
2026-04-22 16:28 -3.59713 37.69853 21160 ft 402 kts 266°
2026-04-22 16:28 -3.59863 37.67104 20720 ft 399 kts 266°
2026-04-22 16:28 -3.60012 37.64346 20267 ft 396 kts 266°
2026-04-22 16:28 -3.60161 37.61604 19816 ft 392 kts 266°
2026-04-22 16:29 -3.60308 37.58890 19363 ft 389 kts 267°
2026-04-22 16:29 -3.60453 37.56223 18920 ft 385 kts 267°
2026-04-22 16:29 -3.60598 37.53550 18479 ft 382 kts 267°
2026-04-22 16:29 -3.60740 37.50932 18043 ft 378 kts 267°
2026-04-22 16:30 -3.60836 37.49164 17746 ft 376 kts 267°
2026-04-22 16:30 -3.61023 37.45710 17195 ft 373 kts 267°
2026-04-22 16:30 -3.61164 37.43121 16766 ft 371 kts 267°
2026-04-22 16:30 -3.61301 37.40570 16343 ft 368 kts 267°
2026-04-22 16:31 -3.61439 37.38029 15920 ft 367 kts 267°
2026-04-22 16:31 -3.61576 37.35494 15498 ft 364 kts 267°
2026-04-22 16:31 -3.61712 37.32951 15081 ft 361 kts 267°
2026-04-22 16:31 -3.61844 37.30460 14667 ft 360 kts 267°
2026-04-22 16:32 -3.61977 37.27982 14264 ft 357 kts 267°
2026-04-22 16:32 -3.62110 37.25506 13861 ft 355 kts 267°
2026-04-22 16:32 -3.62242 37.23049 13453 ft 353 kts 267°
2026-04-22 16:32 -3.62374 37.20594 13044 ft 351 kts 267°
2026-04-22 16:33 -3.62504 37.18166 12644 ft 349 kts 267°
2026-04-22 16:33 -3.62632 37.15772 12240 ft 346 kts 267°
2026-04-22 16:33 -3.62758 37.13364 11836 ft 344 kts 267°
2026-04-22 16:33 -3.62829 37.10989 11424 ft 342 kts 275°
2026-04-22 16:34 -3.62416 37.08680 11246 ft 339 kts 283°
2026-04-22 16:34 -3.61876 37.06387 11065 ft 338 kts 284°
2026-04-22 16:34 -3.61333 37.04114 10877 ft 335 kts 284°
2026-04-22 16:34 -3.60788 37.01847 10672 ft 329 kts 284°
2026-04-22 16:35 -3.60263 36.99667 10484 ft 323 kts 284°
2026-04-22 16:35 -3.59740 36.97503 10299 ft 316 kts 284°
2026-04-22 16:35 -3.59226 36.95380 10136 ft 311 kts 284°
2026-04-22 16:35 -3.58721 36.93296 9935 ft 303 kts 284°
2026-04-22 16:36 -3.58232 36.91281 9631 ft 296 kts 284°
2026-04-22 16:36 -3.57401 36.89453 9313 ft 286 kts 314°
2026-04-22 16:36 -3.55857 36.88271 8988 ft 279 kts 336°
2026-04-22 16:36 -3.54029 36.87600 8546 ft 277 kts 348°
2026-04-22 16:37 -3.52156 36.87227 8119 ft 276 kts 353°
2026-04-22 16:37 -3.50224 36.86997 7681 ft 275 kts 356°
2026-04-22 16:37 -3.48351 36.86850 7395 ft 270 kts
2026-04-22 16:37 -3.46544 36.87199 7083 ft 259 kts 31°
2026-04-22 16:38 -3.45190 36.88303 6679 ft 248 kts 56°
2026-04-22 16:38 -3.44368 36.89756 6258 ft 235 kts 70°
2026-04-22 16:38 -3.43906 36.91208 6334 ft 196 kts 82°
2026-04-22 16:38 -3.43703 36.92484 5937 ft 191 kts 85°
2026-04-22 16:39 -3.43580 36.93820 5332 ft 192 kts 87°
2026-04-22 16:39 -3.43497 36.95076 5048 ft 174 kts 88°
2026-04-22 16:39 -3.43434 36.96264 4783 ft 167 kts 89°
2026-04-22 16:39 -3.43381 36.97414 4562 ft 166 kts 89°
2026-04-22 16:40 -3.43329 36.98567 4341 ft 163 kts 89°
2026-04-22 16:40 -3.43281 36.99653 4112 ft 149 kts 89°
2026-04-22 16:40 -3.43193 37.01715 3760 ft 149 kts 89°
2026-04-22 16:41 -3.43148 37.02745 3565 ft 151 kts 88°
2026-04-22 16:41 -3.43097 37.03779 3357 ft 147 kts 88°
2026-04-22 16:41 -3.43054 37.04812 3172 ft 149 kts 89°
2026-04-22 16:41 -3.43010 37.05844 2965 ft 145 kts 88°
2026-04-22 16:42 -3.42972 37.06688 2943 ft 93 kts 88°
2026-04-22 16:42 -3.42956 37.07144 2940 ft 37 kts 89°
2026-04-22 16:42 -3.42942 37.07407 2936 ft 38 kts 88°
2026-04-22 16:42 -3.42929 37.07686 2930 ft 40 kts 88°
2026-04-22 16:43 -3.42918 37.07946 2927 ft 41 kts 88°
2026-04-22 16:43 -3.42889 37.08113 2926 ft 15 kts 51°
2026-04-22 16:43 -3.42872 37.08169 2927 ft 3 kts 142°
2026-04-22 16:43 -3.42911 37.08111 2926 ft 29 kts 262°
2026-04-22 16:44 -3.42927 37.07859 2928 ft 38 kts 267°
2026-04-22 16:44 -3.42936 37.07579 2933 ft 41 kts 267°
2026-04-22 16:44 -3.42946 37.07294 2937 ft 40 kts 272°
2026-04-22 16:44 -3.42887 37.07088 2943 ft 24 kts 295°
2026-04-22 16:45 -3.42808 37.06951 2946 ft 21 kts 306°
2026-04-22 16:45 -3.42720 37.06824 2945 ft 23 kts 282°
2026-04-22 16:45 -3.42720 37.06662 2946 ft 23 kts 268°
2026-04-22 16:45 -3.42726 37.06508 2949 ft 16 kts 271°
2026-04-22 16:46 -3.42682 37.06464 2952 ft 13 kts 349°
2026-04-22 16:46 -3.42595 37.06457 2956 ft 11 kts 356°
2026-04-22 16:46 -3.42552 37.06459 2957 ft 1 kts 48°
2026-04-22 16:46 -3.42555 37.06469 2957 ft 0 kts 149°
2026-04-22 16:47 -3.42550 37.06466 2957 ft 2 kts 155°
2026-04-22 16:47 -3.42543 37.06463 2957 ft 0 kts 155°